User: anonymous   Login
Location: Observatorio Las Palmas
(29.0667°N, 110.9333°W)
Time: 10:30:17
(UTC-07:00)
Language:

NOAA 19 - Orbit

View from above orbital plane
View from above orbital plane
View from above satellite
View from above satellite

Ground track
Ground track

The orbit data is extracted from the following two-line orbital elements,

1 33591U 09005A   17052.56746498  .00000085  00000-0  71422-4 0  9992
2 33591  99.0777  17.8441 0013118 235.4928 124.5005 14.12154889414339
Epoch (UTC): 21 February 2017 13:37:08
Eccentricity: 0.0013118
inclination: 99.0777°
perigee height: 842 km
apogee height: 861 km
right ascension of ascending node: 17.8441°
argument of perigee: 235.4928°
revolutions per day: 14.12154889
mean anomaly at epoch: 124.5005°
orbit number at epoch: 41433

The dashed part of the orbit path shows where the satellite is in the earth's shadow,  

DLR